Waarnemingen

Advertentie
Mijn weer
Barth, Duitsland (10180): temperatuur & dauwpunt: 16.02.2017 11:00:00 - 22.02.2017 11:00:00 (CET)Barth, Duitsland (10180): temperatuur 5cm & temperatuur -5cm: 16.02.2017 11:00:00 - 22.02.2017 11:00:00 (CET)Barth, Duitsland (10180): temperatuur -20cm & temperatuur -100cm: 16.02.2017 11:00:00 - 22.02.2017 11:00:00 (CET)Barth, Duitsland (10180): windsnelheid & windstoten: 16.02.2017 11:00:00 - 22.02.2017 11:00:00 (CET)Barth, Duitsland (10180): windrichting: 16.02.2017 11:00:00 - 22.02.2017 11:00:00 (CET)Barth, Duitsland (10180): luchtdruk: 16.02.2017 11:00:00 - 22.02.2017 11:00:00 (CET)Barth, Duitsland (10180): zicht: 16.02.2017 11:00:00 - 22.02.2017 11:00:00 (CET)Barth, Duitsland (10180): Zonneschijnduur: 16.02.2017 11:00:00 - 22.02.2017 11:00:00 (CET)Barth, Duitsland (10180): neerslag: 16.02.2017 11:00:00 - 22.02.2017 11:00:00 (CET)
Datum & Tijd tt [°C] td [°C] tt 5cm [°C] tt -5cm [°C] tt -20cm [°C] tt -100cm [°C] ff [km/u] ff [kn] fx [km/u] fx [kn] dd ppp [hPa] vv [km] sd [min] rr [mm]
22.02.2017 11:00:00 8,4 7,1 8,2 7,5 4,4 4,0 39 21 66 36 W 993,1 54 0 0,0
22.02.2017 10:00:00 8,0 7,3 7,5 6,7 4,2 4,0 37 20 65 35 W 993,1 53 0 0,3
22.02.2017 09:00:00 8,5 7,6 7,8 6,5 3,9 4,0 37 20 59 32 W 993,1 28 0 1,6
22.02.2017 08:00:00 8,8 8,0 8,1 6,1 3,7 4,0 39 21 53 29 WZW 993,0 7 0 1,2
22.02.2017 07:00:00 7,6 6,9 6,9 5,1 3,5 4,0 29 16 44 24 ZW 993,0 6 0 0,9
22.02.2017 06:00:00 6,1 5,5 5,5 4,2 3,4 4,0 29 16 46 25 ZZW 994,1 7 0 2,1
22.02.2017 05:00:00 5,1 4,3 4,5 3,6 3,3 4,0 30 16 44 24 ZZW 995,9 4,8 0 2,5
22.02.2017 04:00:00 4,7 3,3 3,8 3,1 3,3 4,0 21 11 31 17 Z 998,5 6 0 0,3
22.02.2017 03:00:00 4,6 2,6 3,8 2,7 3,4 4,0 19 10 28 15 ZZW 1001,5 25 0 0,0
22.02.2017 02:00:00 4,2 2,4 3,4 2,4 3,4 3,9 20 11 28 15 ZZW 1003,5 23 0 0,0
22.02.2017 01:00:00 4,0 2,3 3,3 2,3 3,6 3,9 19 11 28 15 ZW 1005,3 24 0 0,0
22.02.2017 00:00:00 3,5 1,9 2,4 1,9 3,8 3,9 17 9 24 13 ZW 1006,7 26 0 0,0
21.02.2017 23:00:00 3,6 2,1 2,4 2,2 3,9 3,9 19 10 37 20 WZW 1007,5 20 0 0,0
21.02.2017 22:00:00 4,3 2,1 3,2 2,5 4,1 3,9 25 13 46 25 WZW 1007,7 27 0 0,0
21.02.2017 21:00:00 4,6 2,2 3,6 2,8 4,3 3,9 33 18 51 27 W 1007,4 27 0 0,0
21.02.2017 20:00:00 5,2 2,4 4,1 3,1 4,6 3,9 36 19 50 27 W 1007,5 31 0 0,0
21.02.2017 19:00:00 5,0 2,2 3,9 3,4 4,8 3,9 34 19 51 27 W 1007,1 28 0 0,0
21.02.2017 18:00:00 5,3 2,3 4,2 3,9 5,0 3,8 34 18 58 31 W 1006,7 30 2 0,0
21.02.2017 17:00:00 5,7 2,2 5,0 4,9 5,0 3,8 32 18 63 34 W 1006,3 29 59 0,0
21.02.2017 16:00:00 6,6 2,5 6,6 5,7 5,0 3,8 34 19 58 32 W 1005,6 14 60 0,0
21.02.2017 15:00:00 6,8 2,7 7,2 6,2 4,9 3,8 37 20 64 35 W 1005,2 16 34 0,0
21.02.2017 14:00:00 6,5 2,7 6,8 6,8 4,7 3,8 39 21 71 39 W 1005,0 24 1 0,0
21.02.2017 13:00:00 6,8 3,1 7,4 7,1 4,4 3,8 38 20 64 34 W 1004,7 23 35 0,0
21.02.2017 12:00:00 6,5 3,2 7,2 6,3 4,3 3,8 42 23 61 33 W 1004,1 14 11 0,0
21.02.2017 11:00:00 5,9 3,1 6,0 5,5 4,2 3,8 40 21 60 32 W 1004,1 21 3 0,0
21.02.2017 10:00:00 5,8 3,3 5,7 4,9 4,1 3,8 37 20 54 29 W 1003,5 17 0 0,0
21.02.2017 09:00:00 5,6 3,5 5,2 4,5 4,2 3,7 34 18 48 26 W 1003,1 22 0 0,0
21.02.2017 08:00:00 5,4 3,5 4,9 4,1 4,2 3,7 33 18 54 29 W 1002,8 21 0 0,0
21.02.2017 07:00:00 5,6 3,9 5,1 4,4 4,3 3,7 36 19 52 28 W 1002,2 23 0 0,0
21.02.2017 06:00:00 5,6 3,9 5,0 4,3 4,4 3,7 37 20 61 33 W 1002,1 23 0 0,0
21.02.2017 05:00:00 5,8 4,2 5,2 4,4 4,5 3,7 41 22 59 32 W 1001,8 23 0 0,0
21.02.2017 04:00:00 5,8 4,0 5,2 4,3 4,7 3,7 35 19 53 28 W 1002,0 27 0 0,0
21.02.2017 03:00:00 5,4 3,9 4,7 4,5 4,8 3,7 35 19 50 27 W 1001,9 30 0 0,0
21.02.2017 02:00:00 5,7 4,4 5,4 5,2 4,9 3,7 32 17 58 31 W 1001,8 33 0 0,0
21.02.2017 01:00:00 6,0 4,8 5,6 5,5 5,0 3,7 40 22 60 33 W 1001,6 32 0 0,0
21.02.2017 00:00:00 6,2 5,5 5,7 5,9 5,0 3,7 40 22 66 35 W 1001,2 21 0 0,0
20.02.2017 23:00:00 6,8 6,2 6,3 6,3 5,0 3,7 41 22 64 34 W 1000,8 16 0 0,0
20.02.2017 22:00:00 7,3 6,8 6,8 6,7 5,0 3,7 42 23 70 38 W 1000,4 8 0 0,0
20.02.2017 21:00:00 7,9 7,5 7,5 7,1 4,9 3,7 40 22 72 39 W 1000,4 5 0 0,4
20.02.2017 20:00:00 8,8 8,1 8,2 7,3 4,8 3,6 41 22 72 39 W 1000,3 7 0 0,3
20.02.2017 19:00:00 8,8 8,2 8,2 7,3 4,7 3,6 44 24 71 38 W 1000,6 6 0 0,0
20.02.2017 18:00:00 9,1 8,0 8,4 7,2 4,5 3,6 43 23 61 33 WZW 1000,7 7 0 0,0
20.02.2017 17:00:00 9,0 7,6 8,5 7,0 4,4 3,6 41 22 67 36 WZW 1001,6 48 0 0,1
20.02.2017 16:00:00 8,7 7,5 7,9 6,9 4,2 3,6 35 19 56 30 WZW 1002,8 13 0 0,1
20.02.2017 15:00:00 8,5 7,1 7,8 6,9 4,1 3,6 37 20 61 33 WZW 1003,6 18 0 0,0
20.02.2017 14:00:00 8,4 6,8 7,8 6,6 3,9 3,6 37 20 58 32 WZW 1004,3 13 0 0,0
20.02.2017 13:00:00 8,1 6,6 7,5 6,3 3,7 3,6 32 18 50 27 WZW 1004,9 9 0 0,0
20.02.2017 12:00:00 7,3 6,5 6,9 6,1 3,6 3,6 31 17 50 27 ZW 1006,1 3,2 0 0,0
20.02.2017 11:00:00 7,2 6,1 6,7 5,8 3,4 3,6 31 17 51 28 ZW 1006,7 6 0 0,2
20.02.2017 10:00:00 6,9 6,0 6,5 5,4 3,3 3,6 27 15 49 26 ZW 1007,7 6 0 0,2
20.02.2017 09:00:00 6,5 4,8 6,1 4,6 3,2 3,6 26 14 40 22 ZW 1008,9 10 0 0,0
20.02.2017 08:00:00 6,1 4,3 5,6 4,2 3,2 3,6 25 14 38 21 ZW 1009,9 15 0 0,0
20.02.2017 07:00:00 5,7 4,1 5,2 4,1 3,2 3,6 23 12 37 20 ZW 1010,6 27 0 0,0
20.02.2017 06:00:00 5,5 4,0 5,0 4,0 3,2 3,6 21 11 36 19 ZW 1011,1 51 0 0,0
20.02.2017 05:00:00 5,4 3,8 5,0 4,0 3,1 3,6 24 13 43 23 WZW 1012,2 52 0 0,0
20.02.2017 04:00:00 5,3 3,7 4,7 4,1 3,1 3,6 30 16 48 26 WZW 1012,7 24 0 0,0
20.02.2017 03:00:00 5,7 4,0 5,3 4,3 3,1 3,6 30 16 45 24 WZW 1013,3 23 0 0,0
20.02.2017 02:00:00 5,8 3,9 5,3 4,3 3,0 3,6 27 15 44 24 WZW 1013,6 22 0 0,0
20.02.2017 01:00:00 5,8 4,8 5,4 4,5 3,0 3,6 30 16 48 26 WZW 1013,8 7 0 0,0
20.02.2017 00:00:00 6,0 5,2 5,5 4,5 2,9 3,6 24 13 44 24 WZW 1014,2 4,8 0 0,0
19.02.2017 23:00:00 5,9 5,2 5,4 4,4 2,8 3,6 26 14 37 20 W 1014,5 4,2 0 0,0
19.02.2017 22:00:00 5,5 5,2 5,1 4,3 2,7 3,6 21 12 41 22 WZW 1014,3 2,7 0 0,1
19.02.2017 21:00:00 5,4 5,1 5,0 4,2 2,7 3,6 27 15 40 21 W 1014,9 2,1 0 0,0
19.02.2017 20:00:00 5,4 4,9 4,9 4,1 2,6 3,6 19 11 39 21 WZW 1014,7 3,4 0 0,0
19.02.2017 19:00:00 5,3 4,9 5,0 4,0 2,5 3,6 24 13 37 20 WZW 1014,7 2,1 0 0,0
19.02.2017 18:00:00 5,1 4,7 4,7 3,9 2,4 3,6 23 12 38 20 WZW 1014,3 2,1 0 0,0
19.02.2017 17:00:00 5,0 4,3 4,7 3,9 2,3 3,6 21 11 30 16 WZW 1014,2 3,0 0 0,0
19.02.2017 16:00:00 5,0 4,1 4,7 4,0 2,2 3,6 17 9 29 16 WZW 1014,3 3,3 0 0,0
19.02.2017 15:00:00 4,8 3,9 4,6 4,1 2,1 3,6 20 11 34 18 ZW 1014,1 3,6 0 0,0
19.02.2017 14:00:00 4,8 3,8 4,6 3,9 1,9 3,6 19 11 29 16 WZW 1014,7 3,5 0 0,0
19.02.2017 13:00:00 4,6 3,6 4,5 3,8 1,7 3,6 19 11 29 16 ZW 1015,1 3,1 0 0,6
19.02.2017 12:00:00 4,6 3,2 4,3 3,6 1,5 3,6 19 11 32 17 ZW 1015,5 2,9 0 0,2
19.02.2017 11:00:00 4,8 2,0 4,5 3,2 1,2 3,6 21 11 30 16 ZW 1015,8 4,7 0 0,0
19.02.2017 10:00:00 4,5 2,1 4,5 3,0 1,1 3,6 21 11 29 16 ZW 1016,2 4,5 0 0,0
19.02.2017 09:00:00 3,9 2,0 3,2 2,0 0,9 3,6 21 11 31 17 ZW 1016,5 4,4 0 0,1
19.02.2017 08:00:00 3,8 1,8 2,7 1,6 0,8 3,6 21 11 33 18 ZW 1016,5 5 0 0,2
19.02.2017 07:00:00 3,7 1,3 3,0 1,3 0,6 3,6 22 12 35 19 ZW 1016,8 7 0 0,0
19.02.2017 06:00:00 3,8 1,3 3,1 1,3 0,4 3,6 21 12 33 18 ZW 1017,5 9 0 0,0
19.02.2017 05:00:00 3,9 1,4 3,1 1,2 0,3 3,6 24 13 36 20 ZW 1018,1 10 0 0,0
19.02.2017 04:00:00 3,3 1,4 2,4 0,9 0,2 3,6 21 11 33 18 ZW 1018,9 10 0 0,0
19.02.2017 03:00:00 3,5 1,6 2,9 1,2 0,2 3,6 22 12 30 16 ZW 1019,8 9 0 0,0
19.02.2017 02:00:00 3,2 1,5 2,5 1,0 0,1 3,6 19 10 29 15 ZW 1020,5 6 0 0,0
19.02.2017 01:00:00 3,1 1,3 2,3 1,1 0,1 3,6 16 9 28 15 ZZW 1021,1 8 0 0,0
19.02.2017 00:00:00 3,1 1,3 2,6 1,1 0,1 3,6 16 9 24 13 ZW 1021,9 9 0 0,0
18.02.2017 23:00:00 3,1 1,3 2,6 1,1 0,1 3,6 15 8 26 14 ZW 1022,4 10 0 0,0
18.02.2017 22:00:00 2,9 1,2 2,5 1,2 0,1 3,6 21 11 33 18 WZW 1023,0 9 0 0,0
18.02.2017 21:00:00 3,1 1,6 2,6 1,2 0,0 3,6 14 8 24 13 WZW 1023,0 16 0 0,0
18.02.2017 20:00:00 3,2 2,0 2,8 1,3 0,0 3,6 17 9 26 14 WZW 1023,2 14 0 0,0
18.02.2017 19:00:00 3,2 1,9 2,8 1,4 0,0 3,6 15 8 27 15 WZW 1023,4 20 0 0,0
18.02.2017 18:00:00 3,3 2,3 2,9 1,6 0,0 3,6 19 10 26 14 W 1023,4 19 0 0,0
18.02.2017 17:00:00 3,0 2,3 2,7 2,0 0,0 3,6 14 8 25 13 W 1023,5 20 0 0,0
18.02.2017 16:00:00 3,3 2,4 3,2 2,5 0,0 3,6 18 10 39 21 W 1023,8 17 0 0,0
18.02.2017 15:00:00 3,4 2,0 3,4 2,6 0,0 3,6 22 12 37 20 W 1023,7 56 0 0,0
18.02.2017 14:00:00 3,6 2,4 3,6 3,0 0,0 3,6 21 12 33 18 W 1023,8 33 0 0,0
18.02.2017 13:00:00 3,9 2,5 3,9 2,6 0,0 3,6 13 7 19 10 W 1024,0 23 0 0,0
18.02.2017 12:00:00 3,2 2,6 3,3 2,2 0,0 3,6 13 7 19 10 W 1024,0 10 0 0,0
18.02.2017 11:00:00 3,0 2,5 3,0 1,9 0,0 3,6 11 6 20 11 WNW 1023,8 8 0 0,0
18.02.2017 10:00:00 2,8 2,5 2,8 1,5 0,0 3,6 13 7 18 10 W 1023,5 6 0 0,0
18.02.2017 09:00:00 2,7 2,4 2,5 1,1 0,0 3,6 10 6 21 11 W 1023,4 4,1 0 0,0
18.02.2017 08:00:00 2,6 2,2 2,3 1,1 0,0 3,6 13 7 27 14 W 1023,2 5 0 0,0
18.02.2017 07:00:00 2,9 2,5 2,6 1,1 0,0 3,6 15 8 23 12 W 1022,9 5 0 0,0
18.02.2017 06:00:00 3,0 2,6 2,7 1,1 0,0 3,6 16 9 23 12 W 1022,5 5 0 0,0
18.02.2017 05:00:00 3,3 2,8 2,9 1,1 0,0 3,6 16 9 25 13 W 1022,2 6 0 0,0
18.02.2017 04:00:00 3,3 2,7 2,9 1,0 0,0 3,6 16 9 25 13 W 1022,1 6 0 0,0
18.02.2017 03:00:00 3,3 2,7 2,8 1,0 0,0 3,6 12 7 21 11 W 1022,0 6 0 0,0
18.02.2017 02:00:00 3,4 2,8 2,9 0,9 0,0 3,6 10 5 16 9 W 1021,9 8 0 0,0
18.02.2017 01:00:00 3,4 2,8 2,9 0,8 0,0 3,6 8 5 13 7 W 1022,0 8 0 0,0
18.02.2017 00:00:00 3,2 2,9 2,6 0,9 0,0 3,6 6 4 17 9 WZW 1021,7 7 0 0,0
17.02.2017 23:00:00 3,6 3,2 3,1 1,0 0,0 3,6 13 7 18 10 W 1021,7 6 0 0,0
17.02.2017 22:00:00 3,7 3,2 3,1 0,9 0,0 3,6 10 5 18 10 W 1021,5 6 0 0,0
17.02.2017 21:00:00 3,7 3,2 2,8 0,8 0,0 3,6 8 4 12 6 W 1021,1 12 0 0,0
17.02.2017 20:00:00 3,1 3,1 2,5 0,8 0,0 3,6 4 2 11 6 W 1020,9 4,0 0 0,0
17.02.2017 19:00:00 3,1 3,1 2,8 1,0 0,0 3,6 10 5 18 10 W 1020,5 2,1 0 0,0
17.02.2017 18:00:00 2,9 2,9 2,6 1,0 0,0 3,7 9 5 12 7 WZW 1020,0 1,8 0 0,0
17.02.2017 17:00:00 2,8 2,7 2,7 1,5 0,0 3,7 8 5 13 7 WZW 1019,5 3,0 0 0,0
17.02.2017 16:00:00 3,6 3,6 3,6 1,8 0,0 3,7 9 5 14 8 W 1019,4 1,1 0 0,0
17.02.2017 15:00:00 4,2 3,7 4,6 1,9 0,0 3,7 8 5 17 9 WNW 1018,8 6 0 0,0
17.02.2017 14:00:00 4,2 4,1 4,7 2,0 0,0 3,7 11 6 21 12 WNW 1018,6 2,7 0 0,0
17.02.2017 13:00:00 4,5 4,2 4,9 1,8 0,0 3,7 16 9 23 12 WNW 1018,4 2,5 0 0,0
17.02.2017 12:00:00 4,6 4,6 5,0 1,4 0,0 3,7 14 8 24 13 W 1018,3 2,5 0 0,0
17.02.2017 11:00:00 4,8 4,5 4,9 1,0 0,0 3,7 13 7 24 13 W 1018,1 2,6 0 0,1
17.02.2017 10:00:00 4,4 4,2 4,2 0,6 0,0 3,7 11 6 21 11 W 1018,0 2,9 0 0,0
17.02.2017 09:00:00 3,8 3,8 3,4 0,4 0,0 3,7 12 6 16 9 WZW 1017,8 1,2 0 0,3
17.02.2017 08:00:00 3,9 3,7 3,3 0,3 -0,1 3,7 9 5 16 9 ZW 1017,8 1,6 0 0,3
17.02.2017 07:00:00 3,8 3,5 3,2 0,2 -0,1 3,7 11 6 17 9 ZW 1017,8 2,1 0 1,6
17.02.2017 06:00:00 3,9 3,5 3,3 0,2 0,0 3,7 13 7 18 10 ZW 1018,2 2,2 0 0,9
17.02.2017 05:00:00 4,5 3,3 3,7 0,1 0,0 3,7 11 6 18 10 ZW 1018,6 5 0 0,0
17.02.2017 04:00:00 4,7 2,8 3,9 0,1 0,0 3,7 10 5 24 13 WZW 1019,3 8 0 0,0
17.02.2017 03:00:00 5,0 2,9 4,3 0,1 0,0 3,7 17 9 30 16 WZW 1020,0 8 0 0,0
17.02.2017 02:00:00 5,2 3,7 4,7 0,0 0,0 3,7 19 11 31 17 WZW 1020,5 6 0 0,0
17.02.2017 01:00:00 5,6 4,1 5,1 0,0 0,0 3,7 21 11 34 18 W 1021,0 6 0 0,0
17.02.2017 00:00:00 5,9 4,4 5,3 0,0 0,0 3,7 23 12 30 16 W 1021,7 5 0 0,0
16.02.2017 23:00:00 5,1 3,9 4,4 0,0 0,0 3,7 14 7 20 11 WZW 1022,1 6 0 0,0
16.02.2017 22:00:00 5,3 4,0 4,7 0,0 0,0 3,7 11 6 26 14 WZW 1022,5 7 0 0,0
16.02.2017 21:00:00 5,6 4,1 4,9 0,0 0,0 3,7 17 9 27 15 W 1023,0 8 0 0,0
16.02.2017 20:00:00 4,4 3,5 3,0 0,0 -0,1 3,7 12 7 27 15 WZW 1023,4 7 0 0,0
16.02.2017 19:00:00 5,1 4,0 4,7 0,0 -0,1 3,7 19 10 33 18 WZW 1023,8 8 0 0,0
16.02.2017 18:00:00 5,1 3,9 4,7 0,0 -0,1 3,7 27 15 39 21 W 1024,4 7 0 0,0
16.02.2017 17:00:00 4,8 3,2 3,7 0,0 -0,1 3,7 17 9 36 20 W 1024,2 6 0 0,0
16.02.2017 16:00:00 8,2 4,0 7,2 -0,1 -0,1 3,7 18 10 35 19 W 1024,3 15 0 0,0
16.02.2017 15:00:00 9,0 4,5 8,5 -0,1 -0,1 3,7 23 13 40 21 WZW 1024,5 15 25 0,0
16.02.2017 14:00:00 9,1 4,5 8,5 -0,1 -0,1 3,7 32 17 46 25 W 1025,0 - 36 0,0
16.02.2017 13:00:00 10,1 4,1 10,1 -0,3 -0,1 3,7 19 11 30 16 ZW 1025,1 - 60 0,0
16.02.2017 12:00:00 8,8 3,6 8,2 -0,3 -0,1 3,7 19 10 29 16 ZW 1026,0 - 60 0,0
16.02.2017 11:00:00 7,3 3,4 7,0 -0,4 -0,1 3,7 18 10 28 15 WZW 1026,5 - 56 0,0

tt = temperatuur
td = dauwpunt
tt 5cm = temperatuur 5cm
tt -5cm = temperatuur -5cm
tt -20cm = temperatuur -20cm
tt -100cm = temperatuur -100cm
ff = windsnelheid
fx = windstoten
dd = windrichting
ppp = luchtdruk
vv = zicht
sd = Zonneschijnduur
rr = neerslag

Weerstations in de omgeving